Location: Unspecified
(0.0000°N, 0.0000°E)
Time: 06:43:55
(UTC+00:00)

SRMSAT - Pass Details

Date: 29 March 2019
Orbit: 849 x 866 km, 20.0° (Epoch: 18 April)

Event Time Altitude Azimuth Distance (km) Brightness Sun altitude
Rises 20:06:07 0° 233° (SW) 3,413 ? -30.3°
Reaches altitude 10° 20:08:58 10° 223° (SW) 2,474 ? -31.0°
Enters shadow 20:12:00 25° 198° (SSW) 1,664 ? -31.7°
